******** Week 365 almanac for PRN-1 ******** ID: 1 Health: 0 Eccentricity: 0.001689910889 Time of Applicability(s): 589824 Orbital Inclination(rad): 0.9577397065 Rate of Right Ascen(r/s): -7.874613723e-09 SQRT(A) (m 1/2): 5153.571289 Right Ascen at Week(rad): 2.507205088 Argument of Perigee(rad): 0.1573442594 Mean Anom(rad): -2.748854624 Af0(s): 0.0002366537353 Af1(s/s): -7.275958e-12 week: 365 ******** Week 365 almanac for PRN-2 ******** ID: 2 Health: 0 Eccentricity: 0.01682758331 Time of Applicability(s): 589824 Orbital Inclination(rad): 0.96282701 Rate of Right Ascen(r/s): -7.794610391e-09 SQRT(A) (m 1/2): 5153.530273 Right Ascen at Week(rad): 2.344840562 Argument of Perigee(rad): -0.7886810923 Mean Anom(rad): -1.22691536 Af0(s): 6.104761963e-05 Af1(s/s): 7.275958e-12 week: 365 ******** Week 365 almanac for PRN-3 ******** ID: 3 Health: 0 Eccentricity: 0.006673812866 Time of Applicability(s): 589824 Orbital Inclination(rad): 0.994051908 Rate of Right Ascen(r/s): -7.760323248e-09 SQRT(A) (m 1/2): 5153.5625 Right Ascen at Week(rad): -2.787878257 Argument of Perigee(rad): 1.20856489 Mean Anom(rad): 1.467615896 Af0(s): 0.0004009547363 Af1(s/s): -1.455192e-11 week: 365 ******** Week 365 almanac for PRN-4 ******** ID: 4 Health: 0 Eccentricity: 0.003733158112 Time of Applicability(s): 589824 Orbital Inclination(rad): 0.9707246142 Rate of Right Ascen(r/s): -7.931758961e-09 SQRT(A) (m 1/2): 5153.66748 Right Ascen at Week(rad): -1.718197051 Argument of Perigee(rad): -2.870202392 Mean Anom(rad): -1.863270213 Af0(s): 4.14520874e-05 Af1(s/s): 0 week: 365 ******** Week 365 almanac for PRN-5 ******** ID: 5 Health: 0 Eccentricity: 0.005489349365 Time of Applicability(s): 589824 Orbital Inclination(rad): 0.9805756471 Rate of Right Ascen(r/s): -7.863184676e-09 SQRT(A) (m 1/2): 5153.680176 Right Ascen at Week(rad): -2.848118087 Argument of Perigee(rad): 1.421320835 Mean Anom(rad): -1.195244424 Af0(s): -0.0001831428589 Af1(s/s): 0 week: 365 ******** Week 365 almanac for PRN-6 ******** ID: 6 Health: 0 Eccentricity: 0.003793239593 Time of Applicability(s): 589824 Orbital Inclination(rad): 0.9865557753 Rate of Right Ascen(r/s): -7.600316584e-09 SQRT(A) (m 1/2): 5153.619141 Right Ascen at Week(rad): 2.458853234 Argument of Perigee(rad): -0.5346623376 Mean Anom(rad): 2.753245345 Af0(s): -0.0004831052368 Af1(s/s): 0 week: 365 ******** Week 365 almanac for PRN-7 ******** ID: 7 Health: 0 Eccentricity: 0.02072381973 Time of Applicability(s): 589824 Orbital Inclination(rad): 0.9509865958 Rate of Right Ascen(r/s): -7.806039438e-09 SQRT(A) (m 1/2): 5153.5625 Right Ascen at Week(rad): -0.7094994458 Argument of Perigee(rad): -1.979185756 Mean Anom(rad): 1.919686326 Af0(s): -0.000135661377 Af1(s/s): -3.637979e-12 week: 365 ******** Week 365 almanac for PRN-8 ******** ID: 8 Health: 0 Eccentricity: 0.01160097122 Time of Applicability(s): 589824 Orbital Inclination(rad): 0.9428612913 Rate of Right Ascen(r/s): -8.148910863e-09 SQRT(A) (m 1/2): 5153.64502 Right Ascen at Week(rad): 1.336521958 Argument of Perigee(rad): 0.5356023503 Mean Anom(rad): -1.555371132 Af0(s): 0.0003662857178 Af1(s/s): -7.275958e-12 week: 365 ******** Week 365 almanac for PRN-9 ******** ID: 9 Health: 0 Eccentricity: 0.003351688385 Time of Applicability(s): 589824 Orbital Inclination(rad): 0.9649542099 Rate of Right Ascen(r/s): -8.011762293e-09 SQRT(A) (m 1/2): 5153.70459 Right Ascen at Week(rad): -1.782729855 Argument of Perigee(rad): 2.056026359 Mean Anom(rad): -0.96005064 Af0(s): 0.0006006784302 Af1(s/s): -3.637979e-12 week: 365 ******** Week 365 almanac for PRN-10 ******** ID: 10 Health: 0 Eccentricity: 0.01092815399 Time of Applicability(s): 589824 Orbital Inclination(rad): 0.9935905153 Rate of Right Ascen(r/s): -7.737465153e-09 SQRT(A) (m 1/2): 5153.606445 Right Ascen at Week(rad): -2.790384832 Argument of Perigee(rad): -2.257229136 Mean Anom(rad): 0.4754580195 Af0(s): -0.0004657707275 Af1(s/s): 0 week: 365 ******** Week 365 almanac for PRN-11 ******** ID: 11 Health: 0 Eccentricity: 0.002218723297 Time of Applicability(s): 589824 Orbital Inclination(rad): 0.9634382054 Rate of Right Ascen(r/s): -7.828897533e-09 SQRT(A) (m 1/2): 5153.54834 Right Ascen at Week(rad): 2.476760662 Argument of Perigee(rad): -2.327418869 Mean Anom(rad): -2.368877546 Af0(s): -0.000297701355 Af1(s/s): 1.455192e-11 week: 365 ******** Week 365 almanac for PRN-12 ******** ID: 12 Health: 0 Eccentricity: 0.008921146393 Time of Applicability(s): 589824 Orbital Inclination(rad): 0.9593695611 Rate of Right Ascen(r/s): -7.920329913e-09 SQRT(A) (m 1/2): 5153.694824 Right Ascen at Week(rad): 0.4082074179 Argument of Perigee(rad): 1.572232936 Mean Anom(rad): 1.218672835 Af0(s): -0.0004808442139 Af1(s/s): 0 week: 365 ******** Week 365 almanac for PRN-13 ******** ID: 13 Health: 0 Eccentricity: 0.01010990143 Time of Applicability(s): 589824 Orbital Inclination(rad): 0.976255334 Rate of Right Ascen(r/s): -7.840326581e-09 SQRT(A) (m 1/2): 5153.625 Right Ascen at Week(rad): -1.60705797 Argument of Perigee(rad): 0.9945431118 Mean Anom(rad): -1.78443124 Af0(s): 0.0005373697876 Af1(s/s): 0 week: 365 ******** Week 365 almanac for PRN-14 ******** ID: 14 Health: 0 Eccentricity: 0.006937026977 Time of Applicability(s): 589824 Orbital Inclination(rad): 0.9427234727 Rate of Right Ascen(r/s): -8.068907531e-09 SQRT(A) (m 1/2): 5153.597656 Right Ascen at Week(rad): 0.3529590176 Argument of Perigee(rad): -2.730781664 Mean Anom(rad): 1.085332229 Af0(s): 0.0005871122925 Af1(s/s): 0 week: 365 ******** Week 365 almanac for PRN-15 ******** ID: 15 Health: 0 Eccentricity: 0.0166554451 Time of Applicability(s): 589824 Orbital Inclination(rad): 0.9429751414 Rate of Right Ascen(r/s): -8.263201338e-09 SQRT(A) (m 1/2): 5153.657227 Right Ascen at Week(rad): -1.927775678 Argument of Perigee(rad): 1.509371557 Mean Anom(rad): -2.551002561 Af0(s): 0.0003180505615 Af1(s/s): 3.637979e-12 week: 365 ******** Week 365 almanac for PRN-16 ******** ID: 16 Health: 0 Eccentricity: 0.01501131058 Time of Applicability(s): 589824 Orbital Inclination(rad): 0.9584827284 Rate of Right Ascen(r/s): -7.920329913e-09 SQRT(A) (m 1/2): 5153.610352 Right Ascen at Week(rad): 0.4251119162 Argument of Perigee(rad): 0.9328546886 Mean Anom(rad): -0.5112357995 Af0(s): 0.0001921869507 Af1(s/s): 7.275958e-12 week: 365 ******** Week 365 almanac for PRN-17 ******** ID: 17 Health: 0 Eccentricity: 0.01260757446 Time of Applicability(s): 589824 Orbital Inclination(rad): 0.9584707442 Rate of Right Ascen(r/s): -7.966046103e-09 SQRT(A) (m 1/2): 5153.560547 Right Ascen at Week(rad): 1.441883518 Argument of Perigee(rad): -1.114715676 Mean Anom(rad): -1.595895414 Af0(s): -8.74262207e-05 Af1(s/s): -1.091394e-11 week: 365 ******** Week 365 almanac for PRN-18 ******** ID: 18 Health: 0 Eccentricity: 0.005845069885 Time of Applicability(s): 589824 Orbital Inclination(rad): 0.971515573 Rate of Right Ascen(r/s): -7.726036106e-09 SQRT(A) (m 1/2): 5153.588379 Right Ascen at Week(rad): 2.453251358 Argument of Perigee(rad): -2.871911642 Mean Anom(rad): 2.705015206 Af0(s): -0.0002999623779 Af1(s/s): 1.091394e-11 week: 365 ******** Week 365 almanac for PRN-19 ******** ID: 19 Health: 0 Eccentricity: 0.01131057739 Time of Applicability(s): 589824 Orbital Inclination(rad): 0.9576258564 Rate of Right Ascen(r/s): -7.954617056e-09 SQRT(A) (m 1/2): 5153.675781 Right Ascen at Week(rad): 1.485761511 Argument of Perigee(rad): 2.951177552 Mean Anom(rad): 0.1719908548 Af0(s): 0.0005509359253 Af1(s/s): 0 week: 365 ******** Week 365 almanac for PRN-20 ******** ID: 20 Health: 0 Eccentricity: 0.002219676971 Time of Applicability(s): 589824 Orbital Inclination(rad): 0.9603462754 Rate of Right Ascen(r/s): -8.057478483e-09 SQRT(A) (m 1/2): 5153.708496 Right Ascen at Week(rad): -1.777318603 Argument of Perigee(rad): -1.92855278 Mean Anom(rad): 1.14264641 Af0(s): 8.139682617e-05 Af1(s/s): 1.818989e-11 week: 365 ******** Week 365 almanac for PRN-21 ******** ID: 21 Health: 0 Eccentricity: 0.0008277893066 Time of Applicability(s): 589824 Orbital Inclination(rad): 0.9634621739 Rate of Right Ascen(r/s): -8.057478483e-09 SQRT(A) (m 1/2): 5153.73584 Right Ascen at Week(rad): -2.782834396 Argument of Perigee(rad): -0.1986595003 Mean Anom(rad): 0.8047122402 Af0(s): 0.0003270946533 Af1(s/s): 0 week: 365 ******** Week 365 almanac for PRN-22 ******** ID: 22 Health: 0 Eccentricity: 0.01201438904 Time of Applicability(s): 589824 Orbital Inclination(rad): 0.9579374462 Rate of Right Ascen(r/s): -7.931758961e-09 SQRT(A) (m 1/2): 5153.564941 Right Ascen at Week(rad): 0.4284723677 Argument of Perigee(rad): -0.9928922848 Mean Anom(rad): -0.9480446936 Af0(s): -1.582716064e-05 Af1(s/s): 7.275958e-12 week: 365 ******** Week 365 almanac for PRN-23 ******** ID: 23 Health: 0 Eccentricity: 0.006101131439 Time of Applicability(s): 589824 Orbital Inclination(rad): 0.9885691251 Rate of Right Ascen(r/s): -7.794610391e-09 SQRT(A) (m 1/2): 5153.664551 Right Ascen at Week(rad): -2.822648238 Argument of Perigee(rad): -2.741290706 Mean Anom(rad): 1.544279357 Af0(s): 0.0005019470947 Af1(s/s): 3.637979e-12 week: 365 ******** Week 365 almanac for PRN-24 ******** ID: 24 Health: 0 Eccentricity: 0.01798152924 Time of Applicability(s): 589824 Orbital Inclination(rad): 0.9349457107 Rate of Right Ascen(r/s): -8.000333246e-09 SQRT(A) (m 1/2): 5153.591797 Right Ascen at Week(rad): -0.8187247952 Argument of Perigee(rad): 1.140895215 Mean Anom(rad): 2.90146474 Af0(s): -3.240799561e-05 Af1(s/s): 1.818989e-11 week: 365 ******** Week 365 almanac for PRN-25 ******** ID: 25 Health: 0 Eccentricity: 0.01289081573 Time of Applicability(s): 589824 Orbital Inclination(rad): 0.9477688314 Rate of Right Ascen(r/s): -8.023191341e-09 SQRT(A) (m 1/2): 5153.649902 Right Ascen at Week(rad): 0.3139724614 Argument of Perigee(rad): 1.160283444 Mean Anom(rad): 1.107062625 Af0(s): 0.000340660791 Af1(s/s): -3.637979e-12 week: 365 ******** Week 365 almanac for PRN-26 ******** ID: 26 Health: 0 Eccentricity: 0.01102542877 Time of Applicability(s): 589824 Orbital Inclination(rad): 0.9285401425 Rate of Right Ascen(r/s): -8.183198006e-09 SQRT(A) (m 1/2): 5153.676758 Right Ascen at Week(rad): 0.2387276327 Argument of Perigee(rad): 0.7128070919 Mean Anom(rad): 0.2837501187 Af0(s): -0.0002788594971 Af1(s/s): -3.637979e-12 week: 365 ******** Week 365 almanac for PRN-27 ******** ID: 27 Health: 0 Eccentricity: 0.01437759399 Time of Applicability(s): 589824 Orbital Inclination(rad): 0.9519453338 Rate of Right Ascen(r/s): -8.034620388e-09 SQRT(A) (m 1/2): 5153.612793 Right Ascen at Week(rad): 1.3689097 Argument of Perigee(rad): 0.8919959718 Mean Anom(rad): -1.446286972 Af0(s): -8.139682617e-05 Af1(s/s): -1.455192e-11 week: 365 ******** Week 365 almanac for PRN-28 ******** ID: 28 Health: 0 Eccentricity: 0.0003943443298 Time of Applicability(s): 589824 Orbital Inclination(rad): 0.9618982325 Rate of Right Ascen(r/s): -7.726036106e-09 SQRT(A) (m 1/2): 5153.519043 Right Ascen at Week(rad): -0.7347970211 Argument of Perigee(rad): -0.364761232 Mean Anom(rad): 2.603714425 Af0(s): -0.0004408994751 Af1(s/s): 1.091394e-11 week: 365 ******** Week 365 almanac for PRN-29 ******** ID: 29 Health: 0 Eccentricity: 0.003481864929 Time of Applicability(s): 589824 Orbital Inclination(rad): 0.96112525 Rate of Right Ascen(r/s): -7.966046103e-09 SQRT(A) (m 1/2): 5153.684082 Right Ascen at Week(rad): 1.458727346 Argument of Perigee(rad): 2.757913949 Mean Anom(rad): -1.611831063 Af0(s): -0.0002705690796 Af1(s/s): 7.275958e-12 week: 365 ******** Week 365 almanac for PRN-30 ******** ID: 30 Health: 0 Eccentricity: 0.008193969727 Time of Applicability(s): 589824 Orbital Inclination(rad): 0.9362519912 Rate of Right Ascen(r/s): -7.977475151e-09 SQRT(A) (m 1/2): 5153.685059 Right Ascen at Week(rad): -0.7190797101 Argument of Perigee(rad): -2.29230172 Mean Anom(rad): 1.700460398 Af0(s): 0.0001454591431 Af1(s/s): 1.455192e-11 week: 365 ******** Week 365 almanac for PRN-31 ******** ID: 31 Health: 0 Eccentricity: 0.01081418991 Time of Applicability(s): 589824 Orbital Inclination(rad): 0.9547556345 Rate of Right Ascen(r/s): -7.794610391e-09 SQRT(A) (m 1/2): 5153.538086 Right Ascen at Week(rad): -0.6851078031 Argument of Perigee(rad): 0.9431918316 Mean Anom(rad): 0.8382463485 Af0(s): -0.0001236025879 Af1(s/s): 3.637979e-12 week: 365 ******** Week 365 almanac for PRN-32 ******** ID: 32 Health: 0 Eccentricity: 0.009396553039 Time of Applicability(s): 589824 Orbital Inclination(rad): 0.9679682425 Rate of Right Ascen(r/s): -7.954617056e-09 SQRT(A) (m 1/2): 5153.69873 Right Ascen at Week(rad): -1.765588294 Argument of Perigee(rad): -1.983737514 Mean Anom(rad): -0.8955298201 Af0(s): -2.261022949e-06 Af1(s/s): 1.818989e-11 week: 365